Regional Weather Roundup
Issued by NWS

Home | Current Version | Previous Version | Graphics & Text | Print | Product List | Glossary On
Versions: 1 2 3 4 5 6 7 8 9 10 11 12 13 14 15 16 17 18 19 20 21 22 23 24 25 26 27 28 29 30 31 32 33 34 35 36 37 38 39 40 41 42 43 44 45 46 47 48 49 50
650
ASUS44 KMEG 100810
RWRTN
TENNESSEE HOURLY STATE WEATHER ROUNDUP
NATIONAL WEATHER SERVICE MEMPHIS TN
200 AM CST SAT DEC 10 2016

TNZ002-004-019-021-049-052-054-088>092-100900-
WEST TENNESSEE

CITY           SKY/WX    TMP DP  RH WIND       PRES   REMARKS
MEMPHIS INTL   CLEAR     26  18  71 CALM      30.58S
NWS MEMPHIS      N/A     22 N/A N/A MISG        N/A
JACKSON        CLEAR     19  17  92 CALM      30.58F
DYERSBURG      CLEAR     21  19  93 CALM      30.58S
UNION CITY     CLEAR     18  16  93 CALM      30.57S
PARIS          CLEAR     14  12  92 CALM      30.58R
HUNTINGDON     CLEAR     19  16  86 CALM      30.57S
LEXINGTON      CLEAR     19  18  93 CALM      30.56F
$$

TNZ008-025-027-028-033-062-065-066-100900-
NORTH MIDDLE TENNESSEE

CITY           SKY/WX    TMP DP  RH WIND       PRES   REMARKS
NASHVILLE      CLEAR     24  16  71 N5        30.59R WCI  18
PORTLAND       CLEAR     18  16  93 CALM      30.57S
CLARKSVILLE    CLEAR     19  14  81 CALM      30.59S
SMYRNA         CLEAR     20  15  81 N3        30.60R
GALLATIN       CLEAR     19  16  86 CALM      30.61S
CROSSVILLE     CLEAR     16  13  88 CALM      30.48S
$$

TNZ061-075-076-078-094-096-097-100900-
SOUTH MIDDLE TENNESSEE

CITY           SKY/WX    TMP DP  RH WIND       PRES   REMARKS
FAYETTEVILLE   CLEAR     23  18  80 NE5       30.53S WCI  17
TULLAHOMA      CLEAR     18  14  86 CALM      30.53F
WINCHESTER     CLEAR     18  18 100 CALM      30.53F
MCMINNVILLE    CLEAR     19  16  86 CALM        N/A
COLUMBIA       CLEAR    N/A N/A N/A CALM      30.55S
SHELBYVILLE    CLEAR     19  18  93 CALM      30.56S
$$

TNZ017-018-042-046-047-100900-
NORTHEAST TENNESSEE

CITY           SKY/WX    TMP DP  RH WIND       PRES   REMARKS
TRI CITIES     CLEAR     16  13  88 CALM      30.50R
ELIZABETHTON   CLEAR     16  14  93 CALM      30.49S
$$

TNZ012-013-036-069-073-074-100900-
CENTRAL EAST TENNESSEE

CITY           SKY/WX    TMP DP  RH WIND       PRES   REMARKS
KNOXVILLE      CLEAR     22  15  75 NE3       30.53R
OAK RIDGE      CLEAR     21  16  81 CALM      30.56R
DOWNTOWN KNOXV CLEAR     23  21  93 CALM      30.55S
GATLINBURG     CLEAR     16  14  93 CALM      30.53S
MORRISTOWN     CLEAR     19  16  86 CALM      30.50S
JACKSBORO      CLEAR     18  16  93 CALM      30.56R
$$

TNZ083-085-099-100900-
SOUTHEAST TENNESSEE

CITY           SKY/WX    TMP DP  RH WIND       PRES   REMARKS
CHATTANOOGA    CLEAR     27  17  66 CALM      30.55R
$$

SKY/WX REPORTED AS FAIR MEANS FEW OR NO CLOUDS BELOW
12 THOUSAND FEET.





USA.gov is the U.S. government's official web portal to all federal, state and local government web resources and services.